Airfield :
LOGIN :

Register | Disclaimer

   EN    FR    IT 

 










Legend :    VFR   Marginal VFR   IFR   Intensive IFR   Very Intensive IFR
Visi :
Ceiling :
>= 8 km
>= 3000ft
5 to 8 km
1000 to 3000 ft
1500m to 5 km
500 to 1000 ft
800 to 1500m
200 to 500 ft
< 800m
< 200 ft
Symbols :   Thunderstorms  Fog  Heavy snow  Heavy precipitations  Wind > 20 kt
SIGMETs :     Misc.  Thunderstorms  Icing  Turbulence  Mountain Waves  Volcanic Ashes







- Airport Elevation : 138 ft
- IATA code : RLG


ETNL - Rostock Laage

CURRENT METAR :
  • 161120Z 24011KT 8000 BKN012 BKN031 07/05 Q1003 GRN WHT TEMPO YLO

EXPIRED METARs :
  • 161020Z 23008KT 8000 -DZ BKN011 BKN030 07/05 Q1003 GRN WHT TEMPO YLO
  • 161000Z 23009KT 8000 -DZ BKN012 BKN032 07/05 Q1003 GRN WHT TEMPO GRN
  • 160920Z 24011KT 8000 FEW012 BKN034 07/05 Q1004 BLU WHT TEMPO YLO

TAF TAF ETNL
Valid from the 16 at 12:00 until the 16 at 21:00 UTC


161120Z 1612/1621 23010G20KT 8000 NSW BKN015 BKN030
TEMPO 1612/1618 25015G25KT 3000 -RADZ BKN008 BY ETGL
No reported NOTAMs for that airfield.



MET'MAP, your aeronautical weather chart ! - Copyright ORBIFLY December 2007 - Disclaimer

ORBIFLY MET'MAP TEAM :

Programming & Development : Alexandra Zaïnal
Concept & Development : Baudouin d'Aumeries
Co-Development & Prog : Marc-Olivier Méhu
Technical & hardware support : Manuel Goepfert

Contact : metmap@orbifly.com




SOURCES & CREDITS :

   NOAA